[[{"header":{"parameterUnit":"m.s-1","parameterCategory":1,"la1":30.2991,"la2":30.254,"lo1":-89.0895,"lo2":-89.0444,"dy":0.0017,"dx":0.0017,"nx":28,"ny":28,"refTime":"2025-09-14T03:00:00:Z","depth":0,"parameterNumber":2,"parameterNumberName":"U-component_of_WINDS"},"data":[0,0,0,0,0,0,0,0,0,0,0,0,0,0,0,0,0,0,0,0,0,0,0,0,0,0,0,0,0,0,0,0,0,0,0,0,0,0,0,0,0,0,0,0,0,0,0,0,0,0,0,0,0,0,0,0,0,0,-1.9813,-1.9813,0,-1.9831,-1.9832,-1.9832,-1.9826,-1.9825,-1.9825,-1.9825,-1.984,-1.984,-1.9841,0,0,0,0,0,0,0,0,0,0,0,0,0,-1.9772,-1.9773,-1.9813,-1.9813,-1.9813,-1.9831,-1.9832,-1.9832,-1.9826,-1.9825,-1.9825,-1.9824,-1.9839,-1.984,-1.9841,0,0,0,0,0,0,0,0,0,0,0,0,0,-1.979,-1.9773,-1.9813,-1.9812,-1.9813,-1.9831,-1.9832,-1.9832,-1.9826,-1.9825,-1.9825,-1.9824,-1.9839,-1.984,-1.9841,-1.986,0,0,-1.9845,-1.9845,0,0,0,0,0,0,0,0,-1.9789,-1.9791,-1.9812,-1.9812,-1.9813,-1.9826,-1.9823,-1.9841,-1.9826,-1.9821,-1.9825,-1.9824,-1.9835,-1.9837,-1.9841,-1.9861,-1.9861,-1.9845,-1.9846,-1.9846,-1.9847,0,0,0,0,0,0,0,-1.9788,-1.979,-1.982,-1.9812,-1.9813,-1.9812,-1.9813,-1.9826,-1.9831,-1.9821,-1.9821,-1.9823,-1.9835,-1.984,-1.9842,-1.9862,-1.9845,-1.9846,-1.9847,-1.9847,-1.9902,-1.9903,0,0,0,0,0,0,-1.9786,-1.9789,-1.9819,-1.982,-1.9799,-1.9813,-1.9815,-1.9822,-1.9831,-1.9832,-1.9824,-1.9823,-1.9839,-1.984,-1.9842,-1.9867,-1.9846,-1.9847,-1.9848,-1.9902,-1.9903,-1.9903,0,0,0,0,0,0,-1.9786,-1.9789,-1.9818,-1.9805,-1.9809,-1.9814,-1.9822,-1.9823,-1.9828,-1.9833,-1.9833,-1.9828,-1.9838,-1.9841,-1.9857,-1.9867,-1.9848,-1.9849,-1.9901,-1.9902,-1.9903,-1.9915,0,0,0,0,0,0,-1.9784,-1.9789,-1.9795,-1.9805,-1.9809,-1.9833,-1.9823,-1.9823,-1.983,-1.9829,-1.9837,-1.9838,-1.9838,-1.9855,-1.9858,-1.9868,-1.985,-1.99,-1.9901,-1.9903,-1.9914,-1.9917,-1.9919,0,0,0,0,0,-1.9783,-1.9796,-1.9796,-1.9799,-1.9818,-1.9833,-1.9836,-1.9837,-1.9831,-1.9838,-1.9843,-1.9837,-1.9867,-1.9857,-1.986,-1.9871,-1.9899,-1.9901,-1.9902,-1.9913,-1.9916,-1.9919,0,0,0,0,0,0,-1.9785,-1.9797,-1.9797,-1.9814,-1.9823,-1.9832,-1.9841,-1.984,-1.9849,-1.9848,-1.9848,-1.985,-1.9868,-1.9871,-1.9861,-1.9892,-1.9882,-1.9884,-1.9888,-1.9892,-1.9894,-1.9892,-1.9851,0,0,0,0,0,-1.9788,-1.98,-1.981,-1.9824,-1.9829,-1.9835,-1.9841,-1.9842,-1.9851,-1.9854,-1.9859,-1.9867,-1.9879,-1.9886,-1.9896,-1.9916,-1.9918,-1.9925,-1.9928,-1.993,-1.9931,-1.9945,-1.9949,-1.9909,-1.9909,-1.9909,0,0,-1.9792,-1.9801,-1.9808,-1.9825,-1.9832,-1.9845,-1.9837,-1.985,-1.986,-1.9855,-1.9872,-1.9877,-1.9886,-1.9906,-1.9914,-1.9909,-1.9944,-1.9932,-1.9934,-1.9934,-1.9947,-1.9951,-1.9954,-1.991,-1.991,-1.991,0,0,-1.9808,-1.9815,-1.9829,-1.9838,-1.985,-1.9855,-1.9859,-1.987,-1.9873,-1.9891,-1.9889,-1.9901,-1.992,-1.9928,-1.9934,-1.996,-1.9956,-1.9964,-1.9976,-1.9989,-1.9993,-1.9995,-2.0005,-2.0009,-1.9966,-1.9966,-1.9966,0,-1.9811,-1.9831,-1.9836,-1.9851,-1.9859,-1.986,-1.9875,-1.9883,-1.9897,-1.9903,-1.9898,-1.9925,-1.9931,-1.9954,-1.9961,-1.9966,-1.9971,-1.9961,-1.9992,-1.9995,-1.9997,-2.0007,-2.0011,-1.9966,-1.9966,-1.9966,-1.9966,0,-1.9837,-1.9851,-1.9861,-1.9878,-1.9888,-1.9902,-1.991,-1.992,-1.9922,-1.9927,-1.9947,-1.9956,-1.997,-1.9976,-1.9976,-1.9999,-1.9996,-1.9992,-1.9981,-2.0002,-2.0011,-2.0015,-1.9968,-1.9967,-1.9967,-1.9967,0,0,-1.9848,-1.9873,-1.9876,-1.9886,-1.9902,-1.9913,-1.993,-1.9946,-1.9954,-1.9966,-1.998,-2.0,-1.9997,-2.0005,-2.0007,-2.0019,-2.0041,-2.0013,-2.0014,-2.0019,-2.007,-2.0073,-2.0077,-2.0041,-2.0042,-2.0042,-2.007,0,-1.9866,-1.9895,-1.9903,-1.9927,-1.9942,-1.9946,-1.996,-1.9973,-1.998,-1.9994,-2.0002,-2.0016,-2.0011,-2.0016,-2.0028,-2.0036,-2.0052,-2.0034,-2.0054,-2.0054,-2.005,-2.0081,-2.0083,-2.0108,-2.0073,-2.0074,-2.0074,0,-1.9888,-1.9904,-1.9931,-1.995,-1.9956,-1.9969,-1.9986,-1.9999,-2.0015,-2.002,-2.0032,-2.0034,-2.0053,-2.0044,-2.007,-2.0059,-2.0068,-2.0074,-2.0075,-2.0075,-2.0064,-2.0082,-2.0116,-2.0119,-2.008,-2.0079,-2.0079,0,-1.9896,-1.9923,-1.9944,-1.9952,-1.9974,-1.9983,-1.9993,-2.0008,-2.0019,-2.0034,-2.0042,-2.0059,-2.0068,-2.0082,-2.009,-2.0082,-2.0117,-2.0108,-2.0121,-2.0121,-2.0125,-2.0125,-2.0161,-2.0134,-2.0133,-2.0133,-2.0133,0,-1.9913,-1.993,-1.9948,-1.996,-1.998,-1.999,-2.0009,-2.0019,-2.0034,-2.0049,-2.0054,-2.0068,-2.0078,-2.0094,-2.0101,-2.0123,-2.0127,-2.0132,-2.0133,-2.013,-2.013,-2.0135,-2.0133,-2.0134,-2.0134,-2.0134,-2.0134,0,-1.9923,-1.9936,-1.9959,-1.998,-1.9986,-1.9999,-2.0018,-2.0031,-2.0041,-2.006,-2.0065,-2.008,-2.01,-2.0111,-2.0134,-2.0139,-2.0164,-2.0165,-2.0159,-2.0159,-2.0172,-2.0171,-2.0211,-2.0218,-2.0187,-2.0188,-2.0188,0,-1.9933,-1.9946,-1.997,-1.9982,-1.9992,-2.001,-2.0022,-2.0034,-2.0047,-2.0069,-2.008,-2.01,-2.0117,-2.0149,-2.0162,-2.0182,-2.0182,-2.0196,-2.0185,-2.0183,-2.0183,-2.0181,-2.0183,-2.0196,-2.0197,-2.0197,-2.0197,0,-1.9949,-1.9956,-1.9974,-1.9995,-2.001,-2.0027,-2.0044,-2.0053,-2.0068,-2.0083,-2.0104,-2.0118,-2.0145,-2.0166,-2.0188,-2.0198,-2.02,-2.0201,-2.0205,-2.0202,-2.0198,-2.0201,-2.0163,-2.0199,-2.0199,-2.0199,-2.0199,-2.0199,-1.9959,-1.9973,-1.9993,-2.0013,-2.0028,-2.0045,-2.006,-2.0073,-2.0092,-2.0115,-2.0122,-2.0145,-2.0165,-2.0194,-2.0206,-2.0225,-2.0222,-2.0228,-2.0229,-2.023,-2.0231,-2.0198,-2.0229,-2.0229,-2.0229,-2.0229,-2.0229,0,-1.9976,-1.9991,-2.001,-2.0035,-2.0052,-2.0056,-2.0076,-2.009,-2.0111,-2.0129,-2.0148,-2.0174,-2.0196,-2.0213,-2.0236,-2.0248,-2.025,-2.0254,-2.0252,-2.0255,-2.0232,-2.0226,-2.0252,-2.0252,-2.0252,-2.0252,-2.0252,-2.0252,-1.9987,-2.001,-2.0021,-2.0053,-2.0067,-2.0091,-2.0103,-2.0119,-2.0134,-2.0165,-2.0184,-2.0196,-2.0214,-2.0239,-2.026,-2.0265,-2.0273,-2.0276,-2.0281,-2.0259,-2.0256,-2.0254,-2.0248,-2.0278,-2.0278,-2.0302,-2.0303,-2.0303]},{"header":{"parameterUnit":"m.s-1","parameterCategory":1,"la1":30.2991,"la2":30.254,"lo1":-89.0895,"lo2":-89.0444,"dy":0.0017,"dx":0.0017,"nx":28,"ny":28,"refTime":"2025-09-14T03:00:00:Z","depth":0,"parameterNumber":3,"parameterNumberName":"V-component_of_WINDS"},"data":[0,0,0,0,0,0,0,0,0,0,0,0,0,0,0,0,0,0,0,0,0,0,0,0,0,0,0,0,0,0,0,0,0,0,0,0,0,0,0,0,0,0,0,0,0,0,0,0,0,0,0,0,0,0,0,0,0,0,2.716,2.7159,0,2.7071,2.707,2.7069,2.7005,2.7005,2.7004,2.7004,2.6916,2.6914,2.6913,0,0,0,0,0,0,0,0,0,0,0,0,0,2.7278,2.7276,2.716,2.7159,2.7158,2.7071,2.707,2.7069,2.7006,2.7005,2.7004,2.7004,2.6917,2.6915,2.6912,0,0,0,0,0,0,0,0,0,0,0,0,0,2.7212,2.7275,2.716,2.7116,2.7111,2.7072,2.707,2.7069,2.7006,2.7005,2.7004,2.7003,2.6918,2.6915,2.6912,2.6911,0,0,2.6904,2.6903,0,0,0,0,0,0,0,0,2.7216,2.7208,2.7123,2.7119,2.7113,2.7048,2.7079,2.7016,2.7006,2.7046,2.7004,2.7003,2.6961,2.6955,2.694,2.6907,2.6903,2.6903,2.6902,2.6901,2.69,0,0,0,0,0,0,0,2.722,2.7211,2.7125,2.7122,2.7116,2.7101,2.7091,2.7067,2.7009,2.7042,2.7037,2.7028,2.6958,2.6943,2.6937,2.6902,2.6904,2.6901,2.6899,2.6898,2.6864,2.6865,0,0,0,0,0,0,2.7231,2.7215,2.7128,2.7122,2.7163,2.71,2.7088,2.707,2.7009,2.6999,2.7028,2.7025,2.6948,2.6941,2.6934,2.6928,2.6901,2.6898,2.6896,2.6863,2.6864,2.6865,0,0,0,0,0,0,2.7234,2.7224,2.7131,2.7167,2.7154,2.7099,2.7079,2.7069,2.7053,2.6999,2.6988,2.7023,2.6947,2.6938,2.6917,2.6924,2.6897,2.6894,2.6863,2.6864,2.6865,2.6917,0,0,0,0,0,0,2.7238,2.7226,2.7224,2.7168,2.7153,2.7115,2.7079,2.7068,2.7048,2.7043,2.6991,2.6981,2.6946,2.6922,2.6914,2.692,2.6892,2.6862,2.6863,2.6864,2.6915,2.692,2.6925,0,0,0,0,0,2.7242,2.7243,2.7224,2.7214,2.7149,2.7115,2.7107,2.7065,2.7049,2.7047,2.7012,2.6983,2.6925,2.692,2.6911,2.6916,2.6861,2.6863,2.6864,2.6913,2.6919,2.6925,0,0,0,0,0,0,2.7302,2.7235,2.7213,2.7195,2.7161,2.7105,2.7101,2.7073,2.7044,2.704,2.699,2.6979,2.6963,2.6938,2.6933,2.6912,2.6889,2.689,2.6929,2.6935,2.694,2.6946,2.689,0,0,0,0,0,2.7313,2.729,2.7233,2.7223,2.7207,2.7157,2.7141,2.7111,2.7075,2.706,2.7024,2.6991,2.6965,2.6949,2.6922,2.6911,2.6899,2.6911,2.6916,2.692,2.6921,2.6913,2.6918,2.6871,2.6871,2.6871,0,0,2.7335,2.7296,2.7284,2.7234,2.7204,2.7182,2.7145,2.7124,2.7108,2.7057,2.7035,2.7007,2.6967,2.6951,2.6942,2.6929,2.6931,2.6923,2.6926,2.6924,2.6915,2.692,2.6924,2.6872,2.6872,2.6871,0,0,2.7365,2.7333,2.732,2.7291,2.7247,2.7214,2.7211,2.7159,2.7138,2.7115,2.7076,2.7057,2.7014,2.6986,2.6967,2.6988,2.696,2.6981,2.7007,2.7,2.7004,2.7007,2.7014,2.7017,2.6981,2.6982,2.6982,0,2.7398,2.7363,2.7318,2.7298,2.7278,2.7231,2.7218,2.7193,2.7143,2.713,2.7116,2.706,2.703,2.7007,2.7012,2.6998,2.6994,2.6986,2.7007,2.7009,2.7012,2.7018,2.702,2.6984,2.6984,2.6984,2.6983,0,2.7406,2.7383,2.7379,2.733,2.7309,2.7293,2.7247,2.7231,2.7204,2.7173,2.7151,2.7113,2.7077,2.707,2.7044,2.7044,2.7037,2.7016,2.6992,2.7019,2.7024,2.7026,2.6988,2.6987,2.6986,2.6986,0,0,2.7469,2.7396,2.7395,2.7373,2.7321,2.7302,2.7285,2.725,2.7237,2.7205,2.719,2.7155,2.7135,2.7113,2.7083,2.7078,2.7096,2.7057,2.7055,2.7065,2.7094,2.7109,2.7113,2.7078,2.7078,2.7079,2.7097,0,2.7489,2.7455,2.7414,2.7394,2.7372,2.7328,2.7313,2.7281,2.7252,2.723,2.7199,2.7174,2.715,2.7136,2.7129,2.7096,2.7101,2.7094,2.7064,2.7063,2.7074,2.7115,2.7131,2.715,2.7099,2.7099,2.7099,0,2.7508,2.7477,2.7454,2.7404,2.7394,2.7381,2.7346,2.7325,2.7288,2.7267,2.7243,2.7212,2.7193,2.7173,2.7146,2.7142,2.7128,2.711,2.711,2.7104,2.7082,2.711,2.7155,2.7158,2.7102,2.7102,2.7101,0,2.7555,2.7507,2.7487,2.747,2.7412,2.7404,2.738,2.7341,2.7323,2.7293,2.728,2.7249,2.7232,2.7209,2.717,2.7159,2.7149,2.7125,2.7131,2.7132,2.713,2.713,2.7172,2.7123,2.7123,2.7123,2.7123,0,2.7581,2.7568,2.7507,2.7495,2.7481,2.7435,2.7423,2.7395,2.7361,2.7344,2.7305,2.729,2.724,2.7219,2.7189,2.7172,2.7165,2.7148,2.714,2.7151,2.7153,2.714,2.7137,2.7123,2.7123,2.7123,2.7123,0,2.7629,2.7588,2.7563,2.7511,2.7497,2.7489,2.7444,2.7431,2.7401,2.7379,2.7372,2.7324,2.7298,2.7257,2.7219,2.7199,2.7187,2.7175,2.7199,2.7194,2.7202,2.7202,2.7237,2.7239,2.719,2.719,2.719,0,2.7648,2.7637,2.7583,2.7568,2.7545,2.7522,2.7502,2.7459,2.7441,2.7398,2.7391,2.7361,2.7335,2.7295,2.7258,2.7229,2.7215,2.7229,2.721,2.7221,2.7214,2.7215,2.7213,2.7233,2.7234,2.7234,2.7235,0,2.7685,2.7665,2.7638,2.7605,2.7583,2.7555,2.7525,2.7516,2.7466,2.7448,2.742,2.74,2.7361,2.7332,2.7298,2.7274,2.7247,2.7242,2.7241,2.7251,2.7266,2.7257,2.721,2.724,2.724,2.7239,2.7239,2.7239,2.7718,2.7706,2.7667,2.7639,2.7612,2.7585,2.757,2.7538,2.7514,2.7478,2.7454,2.7428,2.7392,2.7344,2.7322,2.7301,2.7289,2.7289,2.7289,2.7289,2.7293,2.727,2.7295,2.7295,2.7295,2.7295,2.7294,0,2.7751,2.7724,2.7699,2.7658,2.7637,2.7613,2.7579,2.7563,2.7539,2.7508,2.7483,2.7452,2.7424,2.7386,2.7356,2.7347,2.7333,2.734,2.734,2.7335,2.7306,2.7308,2.7352,2.7352,2.7352,2.7352,2.7352,2.7352,2.7766,2.7745,2.7722,2.7688,2.7661,2.7634,2.7617,2.7593,2.7567,2.7534,2.751,2.7485,2.7451,2.7419,2.7393,2.7382,2.7373,2.7384,2.7369,2.7342,2.7337,2.7332,2.7334,2.7382,2.7382,2.74,2.74,2.74]}]]